Погода в Майкопе

Погода в Майкопе : погода сейчас, прогноз погоды и архив. Всё, что Вы хотите узнать о погоде в Майкопе!

Поиск расширенной информации на нашем сайте:

Другие новости

Новости СМИ2

Главная страница сайта

Новости сайта

03.07.2017

Напоминаем, что на нашем специализированном сайте Метеоцентр.Азия вы можете получить высокодетализированные автоматические прогнозы погоды по пунктам России, СНГ и мира в авиационном формате (включающие направление и скорость ветра, видимость, явления погоды, количество и форму облачности, нижнюю и верхнюю границу облачности).


Погода в Майкопе - сегодня

Время (UTC), дата Ветер
(°,м/с) 
Видим.   Явления Облачность Т
(°С)
Тd
(°С)
f(%) Тe
(°С)
Pmin
(гПа)
dP
(гПа)
Po
(мм)
O2
(г/м3)
Тmin Tmax R s Состояние
почвы
09 20.01.18 130 (ЮВ) 20000 м    8/0 средняя, верхняя 
[Ac trans|Ci sp]
+7.8 +1.9 66 +9  1019.9  -0.5  745  292           
12 20.01.18 080 (В) 20000 м    10/0 средняя, верхняя 
[Ac trans|Ci sp]
+7.1 +0.8 64 +7  1018.6  -1.3  744  292           
15 20.01.18 120 (ЮВ) 20000 м    10/4 1000 м средняя, верхняя 
[Sc|Ac trans|Ci sp]
+5 +1 75 +6  1017.7  -1.1  743  294    +8.2       
18 20.01.18 110 (В) 20000 м    10/0 средняя 
[Ac und]
+4.1 +0.8 79 +5  1016.7  -1.1  742  295           
21 20.01.18 150 (ЮВ) 20000 м    10/6 1000 м средняя 
[Sc|Ac und]
+3.6 +0.6 81 +3  1015.3  -1.4  741  295           
00 21.01.18 160 (Ю) 20000 м    10/6 1000 м средняя 
[Sc|Ac und]
+3.6 +0.1 78 +3  1014  -1.3  740  294           
03 21.01.18 160 (Ю) 20000 м    10/6 1000 м средняя 
[Sc|Ac und]
+2.8 -0.2 81 +4  1012.9  -1.1  739  295  +2.7      мокрый или
старый снег
10-40% 
06 21.01.18 150 (ЮВ) 20000 м    10/5 1000 м средняя 
[Sc|Ac As]
+4.2 -0.9 69 +4  1012.5  -0.2  739  293           
09 21.01.18 160 (Ю) 20000 м    8/3 1000 м средняя, верхняя 
[Sc|Ac trans|Ci fib]
+13.2 -0.8 38 +13  1010  -1.6  738  284           
12 21.01.18 200 (Ю) 7-14{18}  20000 м    3/1 1000 м верхняя 
[Sc|Ci fib]
+12.5 +0.3 43 +11  1011.7  1.6  739  285           
15 21.01.18 260 (З) 5{14}  20000 м    1/1 1000 м 
[Sc]
+8.3 +3.1 70 +7  1015.2  742  289    +13.2       
18 21.01.18 030 (СВ) 20000 м    10/0 средняя, верхняя 
[Ac trans|Ci sp]
+2.4 +1.3 92 +3  1017.6  1.8  743  296           
21 21.01.18 060 (СВ) 20000 м    10/0 средняя, верхняя 
[Ac trans|Ci sp]
+2.5 +1.5 93 +3  1016.9  -0.7  742  296           
00 22.01.18 050 (СВ) 20000 м    10/8 600 м средняя 
[Sc|Ac As]
+4 +1.9 86 +3  1014.7  -1.9  741  294           
03 22.01.18 070 (В) 20000 м    10/4 600 м средняя 
[Sc|Ac As]
+4.3 +1.7 83 +3  1012.2  -2.4  739  293  +2         
06 22.01.18 070 (В) 20000 м    10/4 600 м средняя 
[Sc|Ac und]
+3.7 +1.5 86 +2  1010.2  -2  738  293           
09 22.01.18 050 (СВ) 20000 м    10/0 средняя, верхняя 
[Ac As|Ci sp]
+5.7 +2 77 +4  1007.7  -2.2  736  290           
12 22.01.18 040 (СВ) 20000 м    10/3 1000 м средняя, верхняя 
[Sc|Ac As|Ci sp]
+7.2 +2.1 70 +6  1006.4  -1.1  735  288           
15 22.01.18 060 (СВ) 20000 м    10/5 1000 м средняя, верхняя 
[Sc|Ac As|Ci sp]
+5.7 +2.3 79 +5  1007.1  0.5  735  290    +7.3       
18 22.01.18 080 (В) 20000 м    10/4 1000 м средняя, верхняя 
[Sc|Ac As|Ci sp]
+4.3 +2.2 86 +4  1006.8  -0.4  735  291           
21 22.01.18 070 (В) 20000 м    10/5 1000 м средняя, верхняя 
[Sc|Ac As|Ci sp]
+1.7 +1.2 96 +1  1006.4  -0.6  735  294           
00 23.01.18 150 (ЮВ) 20000 м    10/3 1000 м средняя, верхняя 
[Sc|Ac As|Ci sp]
+5 -1.3 64 +4  1005.8  -0.3  734  291           
03 23.01.18 140 (ЮВ) 20000 м    10/4 1000 м средняя, верхняя 
[Sc|Ac As|Ci sp]
+4.9 -1.3 64 +5  1006  0.1  735  291  +1.2         
06 23.01.18 150 (ЮВ) 20000 м    10/6 1000 м средняя 
[Sc|Ac As]
+5.7 -1.5 60 +5  1006.8  0.9  735  290           
09 23.01.18 140 (ЮВ) 20000 м    10/4 1000 м средняя 
[Sc|Ac As]
+8.6 -0.4 53 +9  1007  0.5  736  287           
Время (UTC), дата Ветер
(°,м/с) 
Видим.   Явления Облачность Т
(°С)
Тd
(°С)
f(%) Тe
(°С)
Pmin
(гПа)
dP
(гПа)
Po
(мм)
O2
(г/м3)
Тmin Tmax R s Состояние
почвы

Для получения пояснительной информации подведите курсор к названию столбца.

ПОГОДА в Майкопе - архив

Всё, что Вы хотите узнать о погоде в Майкопе - удобно и подробно!

Выберите нужную дату (начиная с 1 января 2015* года) и нажмите кнопку "Найти".
Будут отображены архивные сводки погоды по пункту Майкоп, начиная с указанной даты.


Отображать данные в формате CSV (для использования в таблицах Excel)


Внимание! Наш архив погоды предназначен исключительно для личного некоммерческого использования в познавательных целях. Если Вам необходимы официальные справки о состоянии погоды (для производственных, юридических, коммерческих и т.п. целей), обращайтесь в органы Росгидромета.

*Примечание: данная дата относится к архиву по метеостанциям СССР (Россия, СНГ, Балтия).
Архив по метеостанциям Зарубежной Европы и Азии (кроме Китая) хранится 10 дней, по другим регионам земного шара (Китай, Африка, Америка, Австралия, Океания) - 1 день.

Майкоп - район местоположения метеостанции


Название, широта, долгота, высота метеостанции:
Майкоп 44.7°ш. 40.1°д. 207 м над ур. моря [Российская Федерация]

Дополнительная информация

В oтличие oт бoльшинства пoгoдных сайтoв мы публикуем пoдрoбную метеoинфoрмацию в детальнoм прoфессиoнальнoм фoрмате.

Характеристики температуры и влажнoсти вoздуха измеряются на высoте 2 м в тени вдали oт зданий и деревьев.
Скoрoсть ветра измеряется на высoте 10 м (на урoвне рoста челoвека скoрoсть ветра ниже в 1.5-2 раза). Если метеoстанция нахoдится в гoрoде или в лесу, тo скoрoсть ветра занижена на 2-4 м/с пo сравнению с oткрытым местoм. Скoрoсть ветра над акватoриями крупных рек и oзёр, а также на вершинах хoлмoв на 2-5 м/с выше, чем в oбычных услoвиях.
Атмoсфернoе давление в разных тoчках местнoсти мoжет значительнo oтличаться oт давления на метеoстанции, в зависимoсти oт услoвий рельефа (при пoдъёме на 10 м давление пoнижается примернo на 1 мм рт.ст.).